When you browse on this site, cookies collect data to enhance your experience and personalize the content and advertising you see.
Visit our Privacy Policy to learn more. By continuing to use the site, you agree to this use of cookies and data.
  • In Hungary
  • List of Countries
  • For 7 days
  • Water Temperature
  • Weather Map
  • News
  • Weather Widgets
  • user-avatar
    Login

    Hourly Weather Mechkor

    Today, 22 September, Sunday

    Time Temperature Precipitation Wind Pressure Humidity
    00:00 +1°C° 0 mm 2 mps 742 mmHg 96%
    01:00 +1°C° 0 mm 2 mps 742 mmHg 95%
    02:00 +3°C° 0 mm 1 mps 742 mmHg 94%
    03:00 +3°C° 0 mm 1 mps 741 mmHg 93%
    04:00 +3°C° 0 mm 1 mps 741 mmHg 93%
    05:00 +3°C° 0 mm 1 mps 741 mmHg 93%
    06:00 +3°C° 0 mm 1 mps 740 mmHg 93%
    07:00 +2°C° 0 mm 0 mps 740 mmHg 94%
    08:00 +4°C° 0 mm 1 mps 740 mmHg 91%
    09:00 +4°C° 0 mm 1 mps 740 mmHg 88%
    10:00 +5°C° 0 mm 1 mps 739 mmHg 86%
    11:00 +5°C° 0.1 mm 2 mps 739 mmHg 81%
    12:00 +5°C° 0.1 mm 2 mps 739 mmHg 75%
    13:00 +6°C° 0.1 mm 2 mps 739 mmHg 70%
    14:00 +6°C° 0.2 mm 2 mps 739 mmHg 69%
    15:00 +7°C° 0.2 mm 1 mps 738 mmHg 69%
    16:00 +7°C° 0.2 mm 1 mps 738 mmHg 68%
    17:00 +6°C° 0.1 mm 1 mps 738 mmHg 75%
    18:00 +4°C° 0.1 mm 1 mps 738 mmHg 82%
    19:00 +3°C° 0.1 mm 1 mps 738 mmHg 88%
    20:00 +2°C° 0 mm 1 mps 738 mmHg 89%
    21:00 +2°C° 0 mm 1 mps 738 mmHg 90%
    22:00 +2°C° 0 mm 1 mps 738 mmHg 91%
    23:00 0°C° 0 mm 0 mps 738 mmHg 92%

    Tomorrow, 23 September, Monday

    Time Temperature Precipitation Wind Pressure Humidity
    00:00 0°C° 0 mm 0 mps 737 mmHg 92%
    01:00 0°C° 0 mm 0 mps 737 mmHg 93%
    02:00 0°C° 0 mm 0 mps 737 mmHg 93%
    03:00 +1°C° 0 mm 1 mps 737 mmHg 94%
    04:00 +1°C° 0 mm 1 mps 737 mmHg 94%
    05:00 +1°C° 0 mm 1 mps 737 mmHg 94%
    06:00 +1°C° 0 mm 1 mps 737 mmHg 94%
    07:00 +1°C° 0 mm 1 mps 736 mmHg 94%
    08:00 +3°C° 0 mm 1 mps 736 mmHg 89%
    09:00 +4°C° 0 mm 1 mps 736 mmHg 84%
    10:00 +5°C° 0 mm 2 mps 736 mmHg 79%
    11:00 +5°C° 0.2 mm 2 mps 736 mmHg 76%
    12:00 +6°C° 0.2 mm 2 mps 736 mmHg 74%
    13:00 +7°C° 0.2 mm 2 mps 736 mmHg 71%
    14:00 +5°C° 0.2 mm 3 mps 736 mmHg 71%
    15:00 +5°C° 0.2 mm 3 mps 736 mmHg 70%
    16:00 +5°C° 0.2 mm 3 mps 736 mmHg 70%
    17:00 +4°C° 0 mm 3 mps 737 mmHg 76%
    18:00 +3°C° 0 mm 2 mps 737 mmHg 81%
    19:00 +1°C° 0 mm 2 mps 738 mmHg 86%
    20:00 +1°C° 0 mm 2 mps 738 mmHg 88%
    21:00 -1°C° 0 mm 2 mps 738 mmHg 89%
    22:00 -2°C° 0 mm 2 mps 739 mmHg 91%
    23:00 -2°C° 0 mm 2 mps 739 mmHg 91%

    Day after tomorrow, 24 September, Tuesday

    Time Temperature Precipitation Wind Pressure Humidity
    00:00 -2°C° 0 mm 2 mps 740 mmHg 92%
    01:00 -3°C° 0 mm 2 mps 740 mmHg 93%
    02:00 -3°C° 0 mm 2 mps 740 mmHg 93%
    03:00 -3°C° 0 mm 2 mps 741 mmHg 94%
    04:00 -1°C° 0 mm 1 mps 741 mmHg 94%
    05:00 -1°C° 0 mm 1 mps 741 mmHg 93%
    06:00 -1°C° 0 mm 1 mps 742 mmHg 93%
    07:00 -1°C° 0 mm 1 mps 742 mmHg 92%
    08:00 -1°C° 0 mm 2 mps 742 mmHg 85%
    09:00 +2°C° 0 mm 2 mps 743 mmHg 78%
    10:00 +3°C° 0 mm 2 mps 743 mmHg 70%
    11:00 +4°C° 0 mm 2 mps 743 mmHg 67%
    12:00 +4°C° 0 mm 3 mps 743 mmHg 63%
    13:00 +4°C° 0 mm 3 mps 743 mmHg 59%
    14:00 +4°C° 0.1 mm 3 mps 743 mmHg 59%
    15:00 +4°C° 0.1 mm 3 mps 744 mmHg 59%
    16:00 +4°C° 0.1 mm 3 mps 744 mmHg 59%
    17:00 +3°C° 0 mm 3 mps 744 mmHg 69%
    18:00 0°C° 0 mm 4 mps 744 mmHg 78%
    19:00 -1°C° 0 mm 4 mps 744 mmHg 87%
    20:00 -1°C° 0 mm 4 mps 744 mmHg 88%
    21:00 -2°C° 0 mm 4 mps 744 mmHg 89%
    22:00 -1°C° 0 mm 3 mps 744 mmHg 90%
    23:00 -2°C° 0 mm 4 mps 744 mmHg 90%

    25 September, Wednesday

    Time Temperature Precipitation Wind Pressure Humidity
    00:00 -2°C° 0 mm 4 mps 744 mmHg 90%
    01:00 -1°C° 0 mm 4 mps 744 mmHg 91%
    02:00 -1°C° 0 mm 4 mps 744 mmHg 90%
    03:00 -1°C° 0 mm 4 mps 744 mmHg 89%
    04:00 0°C° 0 mm 3 mps 744 mmHg 89%
    05:00 -1°C° 0 mm 4 mps 744 mmHg 89%
    06:00 -1°C° 0 mm 4 mps 744 mmHg 89%
    07:00 -1°C° 0 mm 4 mps 744 mmHg 90%
    08:00 0°C° 0 mm 4 mps 744 mmHg 85%
    09:00 0°C° 0 mm 4 mps 744 mmHg 81%
    10:00 +1°C° 0 mm 4 mps 744 mmHg 76%
    11:00 +1°C° 0 mm 4 mps 744 mmHg 75%
    12:00 +2°C° 0 mm 5 mps 745 mmHg 73%
    13:00 +2°C° 0 mm 5 mps 745 mmHg 72%
    14:00 +2°C° 0.1 mm 5 mps 745 mmHg 76%
    15:00 +2°C° 0.1 mm 5 mps 745 mmHg 80%
    16:00 +1°C° 0.1 mm 5 mps 745 mmHg 84%
    17:00 +1°C° 0.1 mm 5 mps 745 mmHg 86%
    18:00 0°C° 0.1 mm 5 mps 745 mmHg 87%
    19:00 0°C° 0.1 mm 5 mps 745 mmHg 89%
    20:00 0°C° 0.2 mm 4 mps 745 mmHg 91%
    21:00 -1°C° 0.2 mm 4 mps 744 mmHg 93%
    22:00 -1°C° 0.2 mm 4 mps 744 mmHg 95%
    23:00 -1°C° 0.1 mm 4 mps 744 mmHg 95%

    26 September, Thursday

    Time Temperature Precipitation Wind Pressure Humidity
    00:00 -1°C° 0.1 mm 5 mps 744 mmHg 95%
    01:00 -1°C° 0.1 mm 5 mps 744 mmHg 95%
    02:00 -1°C° 0.1 mm 5 mps 744 mmHg 95%
    03:00 -1°C° 0.1 mm 5 mps 744 mmHg 96%
    04:00 -1°C° 0.1 mm 5 mps 744 mmHg 96%
    05:00 -1°C° 0.1 mm 5 mps 744 mmHg 96%
    06:00 -1°C° 0.1 mm 5 mps 744 mmHg 96%
    07:00 -1°C° 0.1 mm 5 mps 744 mmHg 96%
    08:00 -1°C° 0.1 mm 5 mps 744 mmHg 93%
    09:00 0°C° 0.1 mm 5 mps 744 mmHg 90%
    10:00 0°C° 0.1 mm 5 mps 744 mmHg 87%
    11:00 +1°C° 0.1 mm 5 mps 744 mmHg 85%
    12:00 +1°C° 0.1 mm 5 mps 744 mmHg 83%
    13:00 +2°C° 0.1 mm 5 mps 745 mmHg 82%
    14:00 +2°C° 0.2 mm 5 mps 745 mmHg 83%
    15:00 +1°C° 0.2 mm 5 mps 745 mmHg 84%
    16:00 +1°C° 0.2 mm 5 mps 745 mmHg 85%
    17:00 +1°C° 0.1 mm 4 mps 745 mmHg 87%
    18:00 0°C° 0.1 mm 4 mps 745 mmHg 90%
    19:00 0°C° 0.1 mm 4 mps 745 mmHg 92%
    20:00 0°C° 0.1 mm 4 mps 746 mmHg 93%
    21:00 -1°C° 0.1 mm 4 mps 746 mmHg 95%
    22:00 -1°C° 0.1 mm 4 mps 746 mmHg 96%
    23:00 -1°C° 0.2 mm 4 mps 746 mmHg 96%

    27 September, Friday

    Time Temperature Precipitation Wind Pressure Humidity
    00:00 0°C° 0.2 mm 3 mps 746 mmHg 97%
    01:00 0°C° 0.2 mm 3 mps 746 mmHg 97%
    02:00 0°C° 0.1 mm 3 mps 746 mmHg 97%
    03:00 0°C° 0.1 mm 3 mps 747 mmHg 97%
    04:00 0°C° 0.1 mm 3 mps 747 mmHg 97%
    05:00 0°C° 0.1 mm 3 mps 747 mmHg 96%
    06:00 0°C° 0.1 mm 3 mps 747 mmHg 96%
    07:00 0°C° 0.1 mm 3 mps 747 mmHg 96%
    08:00 0°C° 0.1 mm 3 mps 747 mmHg 96%
    09:00 +1°C° 0.1 mm 3 mps 748 mmHg 96%
    10:00 +1°C° 0.1 mm 3 mps 748 mmHg 96%
    11:00 +3°C° 0.1 mm 2 mps 748 mmHg 90%
    12:00 +3°C° 0.1 mm 2 mps 748 mmHg 85%
    13:00 +4°C° 0.1 mm 2 mps 749 mmHg 80%
    14:00 +4°C° 0.1 mm 2 mps 749 mmHg 80%
    15:00 +4°C° 0.1 mm 2 mps 749 mmHg 81%
    16:00 +4°C° 0.1 mm 2 mps 749 mmHg 82%
    17:00 +3°C° 0 mm 2 mps 749 mmHg 86%
    18:00 +3°C° 0 mm 1 mps 749 mmHg 89%
    19:00 +2°C° 0 mm 1 mps 749 mmHg 93%
    20:00 +1°C° 0 mm 1 mps 749 mmHg 94%
    21:00 +1°C° 0 mm 1 mps 749 mmHg 95%
    22:00 0°C° 0 mm 1 mps 749 mmHg 96%
    23:00 0°C° 0 mm 1 mps 750 mmHg 97%
    Show more